Lid_Strength_Index
2 1 1 1 1 1 1 1 1 1 1 2 2 2 2 2 1 1 1 1 2 2 3 4 5 5 7 8 7 8 9 9 11 16 15 15 15 15 15 16 15 15 15
2 2 2 1 1 1 1 1 1 1 1 2 2 2 2 2 2 2 2 2 2 3 3 4 4 5 6 6 7 9 9 9 9 15 16 16 16 15 16 16 15 15 16
6 3 2 2 2 2 1 1 1 1 2 2 2 3 3 3 3 3 3 3 3 3 3 4 4 4 6 7 9 9 9 9 10 14 16 16 17 16 17 17 16 16 16
9 9 9 9 7 5 2 2 2 2 2 2 2 2 2 3 3 3 3 3 4 4 4 4 4 5 6 7 9 10 9 10 12 13 16 17 17 17 16 17 17 17 17
11 12 12 11 10 9 9 7 6 4 3 2 2 3 2 3 3 4 4 4 4 4 5 5 5 7 9 8 8 9 10 12 13 15 15 17 18 18 17 17 17 17 17
13 13 13 12 12 12 10 9 9 9 8 7 7 6 5 4 7 9 7 5 6 6 6 7 7 12 11 10 10 10 11 13 14 15 15 16 17 17 17 17 17 18 18
14 14 14 14 14 13 13 12 11 11 11 10 10 10 9 9 10 10 12 9 8 8 8 10 13 14 14 12 12 12 12 11 12 13 15 15 17 16 17 17 18 17 17
15 15 15 15 14 14 14 14 13 12 12 12 12 12 12 11 11 11 12 13 12 12 13 13 13 15 14 14 14 13 14 14 13 13 13 15 14 15 15 15 16 18 19
17 16 16 15 16 15 15 15 15 15 14 14 14 14 14 14 13 13 13 14 15 14 14 14 15 15 15 14 15 16 16 17 15 14 14 14 13 13 15 16 17 17 18
18 17 16 16 16 17 16 16 15 15 15 15 15 15 15 14 13 13 13 15 15 15 15 15 16 14 14 13 15 16 17 17 17 16 15 14 14 14 13 15 16 15 17
18 17 16 16 16 16 16 15 15 15 15 15 15 15 15 15 14 13 13 14 15 15 15 16 16 14 14 13 14 15 15 16 16 16 17 17 16 17 16 16 15 14 16
16 15 15 15 14 14 14 14 14 14 14 14 14 14 13 14 14 13 13 12 12 15 15 16 16 13 13 12 13 13 14 15 16 17 17 18 18 17 17 16 16 16 16
16 15 15 14 14 13 13 13 12 12 13 13 13 13 12 12 11 11 12 11 10 13 14 13 13 13 12 12 13 13 15 15 16 17 18 17 17 16 17 18 18 17 18
15 15 14 14 14 14 13 12 12 12 13 13 14 14 13 12 12 11 11 11 12 11 12 13 13 12 12 13 13 14 15 15 15 16 16 16 17 17 17 17 18 18 19
16 15 15 15 15 14 14 13 12 12 12 13 14 14 14 14 13 11 11 11 12 12 13 13 13 13 14 14 15 14 14 14 15 16 17 17 17 17 18 17 17 17 18
17 16 16 15 15 14 14 14 12 11 11 12 12 13 13 12 12 10 10 9 10 11 13 13 13 13 14 14 15 15 15 14 14 15 16 16 17 17 17 17 17 16 18
17 17 17 16 16 15 14 14 15 14 12 13 13 13 13 13 12 12 10 10 10 11 12 13 13 13 13 14 14 14 14 13 14 15 16 16 17 17 18 18 17 17 19
19 19 18 14 16 14 14 14 15 15 17 17 15 14 14 14 14 14 13 13 16 15 14 13 13 13 12 12 13 14 14 14 14 15 16 16 17 17 18 18 18 19 19
15 21 21 14 14 14 14 14 15 16 17 18 18 16 18 15 15 16 17 20 20 20 18 17 16 14 14 14 15 15 15 16 15 16 16 17 17 17 18 18 19 19 20
17 17 20 15 15 15 15 16 16 17 17 18 20 17 19 20 21 22 21 22 21 21 20 19 18 16 16 16 16 16 17 17 17 18 18 18 18 18 20 21 21 21 21
16 15 20 22 16 20 16 16 16 17 20 21 20 17 15 22 22 22 22 22 22 22 21 21 20 19 18 18 17 18 19 19 19 19 20 20 20 21 20 20 21 22 22
16 19 23 23 23 24 24 21 17 18 20 23 21 22 17 22 22 23 22 22 22 21 20 21 21 21 20 19 19 19 20 20 20 21 21 21 21 21 21 22 22 22 22
24 24 24 24 25 23 24 25 26 25 24 25 24 22 22 23 23 23 22 22 21 21 20 20 21 21 21 21 20 20 20 21 21 21 21 21 21 21 21 22 22 22 23
25 25 25 25 25 25 26 25 25 24 25 25 25 24 22 22 23 23 22 22 21 21 21 20 21 21 21 21 21 21 21 20 20 20 20 21 21 21 21 22 22 22 23
26 26 26 26 26 25 26 26 26 27 27 25 24 24 23 23 23 23 23 23 23 23 23 22 21 21 22 22 22 23 21 21 20 20 20 21 21 22 22 22 23 25 25
27 27 27 27 27 27 27 27 27 27 28 27 26 26 23 23 25 25 25 24 24 25 24 23 22 22 22 22 22 21 21 20 21 20 21 21 22 23 24 25 25 25 24